Wetbulb
62.39 60.84 60.15 59.73 58.72 58.22 58.16 58.11 57.84 57.60 57.38 57.22 56.75 55.64 54.82 53.76 53.50 54.24 52.91 53.63 52.47 52.23
62.75 61.28 60.65 60.20 59.46 58.61 58.33 58.66 58.58 58.32 57.80 57.72 57.01 56.04 54.73 53.90 53.23 54.90 53.85 53.09 53.24 51.88
62.95 62.53 62.04 61.44 59.96 59.14 59.27 58.80 59.31 58.71 58.22 57.88 57.64 56.92 55.99 54.30 53.59 54.07 54.29 54.04 51.22 51.47
63.72 63.35 62.34 61.65 61.18 60.41 60.34 60.82 60.08 60.24 59.72 58.68 57.73 57.61 55.31 53.69 54.22 53.67 52.97 54.23 53.09 52.99
65.44 63.97 62.96 62.08 61.61 61.69 61.94 62.30 62.27 61.59 60.30 59.52 58.64 57.81 56.48 54.77 55.32 52.89 53.05 52.93 52.36 52.09
63.82 63.43 62.84 62.48 62.56 62.66 62.11 60.82 60.74 60.78 59.88 59.32 58.65 58.13 57.25 56.48 56.06 54.09 54.57 54.06 52.97 52.26
62.88 62.58 62.94 62.99 62.79 61.94 60.58 60.21 59.54 59.49 59.36 59.13 58.89 58.82 58.14 56.92 56.52 55.11 55.11 55.50 54.91 53.80
61.90 61.52 61.74 61.44 61.56 61.46 61.24 60.96 59.98 59.51 58.54 58.19 57.83 57.66 57.69 58.36 57.60 57.12 55.72 56.08 56.33 55.82
61.67 62.04 61.15 61.16 60.90 60.65 60.71 60.67 60.27 59.70 59.10 59.04 58.66 54.51 53.38 56.80 56.96 56.97 56.16 55.92 56.57 55.99
61.81 60.66 59.76 60.07 60.41 60.11 59.72 59.66 59.69 59.34 59.16 59.14 59.33 52.86 51.84 53.08 57.50 57.37 57.43 57.27 56.80 56.60
58.80 56.70 55.80 55.71 56.34 57.26 58.27 58.27 58.44 58.65 58.45 58.44 58.81 51.70 50.07 51.63 55.84 56.52 57.14 57.51 57.79 57.28
54.75 53.80 53.55 53.28 53.36 55.34 57.17 57.49 57.35 57.82 57.81 57.77 58.03 51.34 48.44 51.52 55.97 55.71 55.42 56.46 56.56 55.98
54.40 53.90 54.56 53.41 53.63 54.97 55.58 55.56 56.41 56.23 56.73 55.09 56.25 51.54 47.53 49.85 55.77 55.41 55.03 55.33 55.58 51.50
55.65 54.90 55.16 54.74 54.28 54.18 53.81 53.83 53.24 52.92 53.63 54.57 54.67 54.77 47.35 46.83 54.99 55.38 54.83 54.09 53.42 53.68
MSLP
1017.77 1018.01 1018.22 1018.47 1018.62 1018.67 1018.68 1018.53 1018.56 1018.77 1019.03 1019.24 1019.47 1019.63 1019.78 1019.94 1020.11 1020.28 1020.35 1020.40 1020.55 1020.70
1017.47 1017.91 1018.29 1018.52 1018.53 1018.53 1018.47 1018.36 1018.38 1018.45 1018.69 1018.83 1019.02 1019.18 1019.34 1019.53 1019.75 1019.84 1019.94 1020.06 1020.14 1020.42
1017.31 1017.74 1018.12 1018.51 1018.51 1018.37 1018.17 1018.11 1018.04 1018.17 1018.31 1018.48 1018.55 1018.72 1019.04 1019.25 1019.35 1019.53 1019.58 1019.64 1019.86 1020.03
1016.46 1016.22 1016.15 1016.70 1017.44 1018.36 1018.12 1017.65 1017.55 1017.51 1017.64 1017.92 1018.04 1018.13 1018.42 1018.69 1018.97 1019.19 1019.21 1019.29 1019.48 1019.53
1015.97 1016.16 1016.57 1016.76 1016.70 1016.74 1017.45 1017.44 1017.26 1017.21 1017.23 1017.26 1017.38 1017.51 1017.72 1017.98 1018.20 1018.55 1018.73 1018.79 1018.93 1019.00
1015.51 1015.84 1015.93 1016.01 1016.12 1015.97 1016.35 1016.58 1016.74 1016.86 1016.81 1016.80 1016.74 1016.81 1016.93 1017.21 1017.49 1017.56 1017.79 1018.01 1018.21 1018.32
1015.44 1015.60 1015.55 1015.44 1015.44 1015.64 1015.87 1016.19 1016.29 1016.33 1016.35 1016.35 1016.32 1016.29 1016.30 1016.50 1016.69 1016.88 1017.04 1017.27 1017.45 1017.60
1015.28 1015.48 1015.38 1015.63 1015.79 1015.92 1015.83 1015.82 1015.79 1015.82 1015.82 1015.87 1015.95 1015.92 1015.92 1016.02 1016.21 1016.41 1016.47 1016.57 1016.72 1016.77
1015.21 1015.18 1015.40 1015.42 1015.54 1015.57 1015.70 1015.74 1015.71 1015.71 1015.67 1015.50 1015.40 1015.35 1015.38 1015.45 1015.53 1015.63 1015.85 1015.87 1015.84 1015.88
1015.13 1015.39 1015.40 1015.39 1015.43 1015.50 1015.54 1015.53 1015.48 1015.45 1015.35 1015.17 1014.94 1014.75 1014.82 1014.72 1014.83 1014.87 1014.96 1015.01 1015.08 1015.09
1015.47 1015.49 1015.52 1015.44 1015.50 1015.40 1015.42 1015.40 1015.20 1015.14 1015.02 1014.91 1014.47 1014.30 1014.33 1014.31 1014.40 1014.14 1014.23 1014.19 1014.20 1014.34
1016.03 1015.94 1015.97 1015.83 1016.00 1015.44 1015.06 1015.16 1015.13 1014.93 1014.75 1014.63 1014.04 1013.75 1013.57 1013.80 1013.90 1013.80 1013.64 1013.33 1013.50 1013.78
1016.17 1016.07 1016.04 1015.71 1015.39 1015.30 1014.90 1014.78 1014.63 1014.64 1014.24 1013.72 1013.74 1013.09 1012.95 1013.13 1013.21 1013.19 1013.12 1013.20 1012.93 1013.30
1016.23 1016.18 1015.98 1015.83 1015.56 1015.28 1014.94 1014.75 1014.38 1014.01 1013.82 1013.45 1013.01 1012.62 1012.52 1012.71 1012.73 1012.44 1012.59 1012.52 1012.74 1012.73
Wind_Speed
4 3 3 4 3 3 4 4 4 5 5 6 6 5 4 3 3 4 4 5 4 3
4 5 5 5 4 3 4 4 5 5 6 7 7 6 5 4 5 4 4 4 4 3
5 4 5 4 5 6 5 6 5 6 6 6 7 6 6 4 4 5 4 4 5 4
8 11 6 7 6 6 6 8 7 8 7 7 7 7 6 6 5 7 5 5 6 6
7 4 5 6 6 7 9 6 6 6 6 7 8 7 9 9 8 8 7 8 6 8
6 6 7 7 7 7 7 6 5 5 6 7 8 8 8 9 9 9 10 9 9 9
4 5 5 5 6 5 5 6 5 6 7 7 7 8 8 9 9 8 8 8 9 9
4 4 3 4 5 5 5 6 6 5 5 5 6 6 7 7 8 9 8 9 9 10
4 3 5 4 4 4 5 5 5 6 6 6 5 9 12 8 7 7 7 10 9 10
3 3 4 5 5 4 4 3 5 6 6 8 8 11 12 12 7 7 8 9 9 8
2 3 4 5 4 3 3 4 4 5 5 6 7 10 12 12 8 6 9 8 9 9
4 6 5 5 7 5 2 3 3 4 7 6 8 10 10 7 7 7 9 8 7 9
2 2 3 2 3 4 2 5 3 6 5 6 9 11 9 8 5 7 6 5 6 12
4 5 5 6 4 5 6 5 6 8 8 8 7 8 9 11 6 6 4 3 4 5
Wind_Direction
208 210 223 228 220 225 224 227 215 212 210 216 220 222 212 204 223 216 213 204 200 204
211 209 233 241 232 230 235 242 231 217 214 221 223 219 207 211 219 205 205 210 196 215
207 209 232 260 243 233 229 227 222 217 214 218 220 214 205 216 217 214 210 201 194 202
217 223 197 195 206 248 248 219 216 216 210 214 216 205 195 208 217 215 217 216 207 213
237 213 227 239 213 195 235 243 234 224 220 214 216 210 205 212 212 211 220 216 206 219
236 221 225 223 225 204 219 227 232 226 225 226 219 210 211 216 217 211 218 218 208 218
256 250 236 228 217 212 209 233 229 228 232 228 227 224 222 218 221 220 226 225 218 215
279 295 283 286 290 288 256 234 229 233 231 235 234 230 223 219 232 231 226 231 229 228
272 282 294 283 263 258 276 270 263 260 261 258 240 230 222 215 216 220 228 244 241 235
319 315 355 1 358 337 293 278 266 265 253 257 253 246 248 232 226 230 230 237 242 239
50 73 49 43 31 350 323 317 302 285 268 264 268 260 258 250 236 224 233 240 239 243
51 55 40 44 358 333 28 341 304 297 301 280 291 259 253 242 235 239 239 229 238 236
49 38 255 226 236 256 233 248 294 275 260 272 281 288 253 209 218 238 250 241 227 228
327 315 301 301 278 291 313 291 293 312 298 279 258 276 263 247 232 229 242 239 253 244